Location: Big Prairie
(40.6673°N, 82.0952°W)
Time: 01:12:04
(UTC+00:00)

USA 276 - Visible Passes

Search period start: 30 June 2022 00:00
Search period end: 10 July 2022 00:00
Orbit: 360 x 365 km, 50.0° (Epoch: 28 June)

Date Brightness Start Highest point End Pass type
(mag) Time Alt. Az. Time Alt. Az. Time Alt. Az.
30 Jun 1.9 02:02:38 10° SW 02:05:34 57° SE 02:08:32 10° ENE visible
30 Jun 4.5 03:38:58 10° WNW 03:41:27 23° NNW 03:43:56 10° NE visible
30 Jun 5.4 05:16:14 10° NW 05:17:55 14° N 05:19:35 10° NE visible
30 Jun 4.5 06:51:52 10° NW 06:54:22 23° NNE 06:56:52 10° ENE visible
30 Jun 1.9 08:27:17 10° WNW 08:30:14 56° SW 08:33:10 10° SE visible
01 Jul 3.3 02:32:32 10° W 02:35:24 41° NNW 02:38:17 10° NE visible
01 Jul 5.2 04:09:47 10° NW 04:11:40 15° N 04:13:33 10° NNE visible
01 Jul 5.1 05:46:11 10° NNW 05:48:12 16° NNE 05:50:14 10° NE visible
01 Jul 4.6 07:21:25 10° NW 07:27:54 - ESE 07:21:54 14° NW visible
01 Jul 3.7 09:00:24 15° SSW 09:00:24 15° SSW 09:01:41 10° S visible
02 Jul 4.8 03:03:06 10° WNW 03:05:26 20° NNW 03:07:47 10° NE visible
02 Jul 5.3 04:40:13 10° NNW 04:41:55 14° N 04:43:37 10° NE visible
02 Jul 5.0 06:15:41 10° NW 06:16:16 14° NNW 06:16:16 14° NNW visible
03 Jul 3.9 01:56:29 10° W 01:59:15 33° NNW 02:02:02 10° NE visible
03 Jul 5.2 03:33:48 10° NW 03:35:34 14° N 03:37:22 10° NNE visible
03 Jul 4.9 05:09:56 10° NNW 05:11:56 18° N 05:11:56 18° N visible
04 Jul 5.0 02:27:02 10° WNW 02:29:14 18° NNW 02:31:25 10° NNE visible
04 Jul 5.1 04:03:59 10° NNW 04:05:45 14° N 04:07:31 10° NE visible
04 Jul 5.2 05:39:19 10° NW 05:39:35 12° NW 05:39:35 12° NW visible
05 Jul 5.1 02:57:36 10° NW 02:59:19 14° N 03:01:01 10° NNE visible
05 Jul 4.6 04:33:28 10° NW 04:35:36 20° N 04:35:36 20° N visible
06 Jul 4.9 01:50:48 10° NW 01:52:51 17° NNW 01:54:54 10° NNE visible
06 Jul 5.0 03:27:30 10° NNW 03:29:23 15° N 03:31:15 10° NE visible
06 Jul 5.0 05:02:46 10° NW 05:03:22 14° NW 05:03:22 14° NW visible
07 Jul 5.0 02:21:10 10° NW 02:22:51 14° N 02:24:32 10° NNE visible
07 Jul 4.2 03:56:50 10° NW 03:59:18 23° NNE 03:59:26 22° NNE visible
08 Jul 4.8 02:50:49 10° NNW 02:52:49 16° N 02:54:49 10° NE visible
08 Jul 4.5 04:26:02 10° NW 04:27:13 21° NW 04:27:13 21° NW visible
09 Jul 4.9 01:44:31 10° NNW 01:46:13 14° N 01:47:54 10° NE visible
09 Jul 3.8 03:20:00 10° NW 03:22:36 26° NNE 03:23:15 24° NE visible
